| Date | Time | Temp. (oF) | Dew Point (oF) | Rel. Hum. (%) | Press. (in.) | Wind Dir. | Wind Speed (mph) | Hourly Rainfall (in.) |
|
|---|---|---|---|---|---|---|---|---|---|
| 1 | 03/05 | 00:00 | 35 | 33 | 95 | 29.94 | N | 5 | 0.00 |
| 2 | 03/04 | 23:00 | 36 | 34 | 93 | 29.95 | N | 5 | 0.06 |
| 3 | 03/04 | 22:00 | 36 | 34 | 93 | 29.95 | W | 0 | 0.03 |
| 4 | 03/04 | 21:00 | 36 | 34 | 94 | 29.91 | SSE | 0 | 0.08 |
| 5 | 03/04 | 20:00 | 37 | 35 | 94 | 29.90 | N | 0 | 0.03 |
| 6 | 03/04 | 19:00 | 37 | 35 | 93 | 29.87 | NNE | 0 | 0.00 |
| 7 | 03/04 | 18:00 | 38 | 36 | 94 | 29.87 | NE | 0 | 0.00 |
| 8 | 03/04 | 17:00 | 38 | 36 | 95 | 29.86 | SSE | 0 | 0.01 |
| 9 | 03/04 | 16:00 | 38 | 36 | 94 | 29.87 | NW | 1 | 0.03 |
| 10 | 03/04 | 15:00 | 37 | 35 | 95 | 29.86 | SSE | 3 | 0.03 |
| 11 | 03/04 | 14:00 | 38 | 36 | 96 | 29.82 | SSW | 2 | 0.00 |
| 12 | 03/04 | 13:00 | 38 | 36 | 95 | 29.85 | ENE | 2 | 0.00 |
| 13 | 03/04 | 12:00 | 38 | 36 | 93 | 29.85 | E | 2 | 0.00 |
| 14 | 03/04 | 11:00 | 36 | 34 | 93 | 29.86 | SSE | 0 | 0.00 |
| 15 | 03/04 | 10:00 | 34 | 32 | 94 | 29.87 | S | 0 | 0.01 |
| 16 | 03/04 | 09:00 | 33 | 31 | 94 | 29.89 | S | 0 | 0.00 |
| 17 | 03/04 | 08:00 | 32 | 30 | 95 | 29.87 | SSW | 0 | 0.00 |
| 18 | 03/04 | 07:00 | 32 | 30 | 95 | 29.84 | ENE | 0 | 0.00 |
| 19 | 03/04 | 06:00 | 31 | 29 | 96 | 29.80 | E | 0 | 0.00 |
| 20 | 03/04 | 05:00 | 31 | 29 | 96 | 29.79 | S | 0 | 0.00 |
| 21 | 03/04 | 04:00 | 31 | 29 | 96 | 29.78 | S | 0 | 0.00 |
| 22 | 03/04 | 03:00 | 31 | 29 | 96 | 29.77 | NE | 0 | 0.00 |
| 23 | 03/04 | 02:00 | 31 | 30 | 97 | 29.82 | SW | 4 | 0.03 |
| 24 | 03/04 | 01:00 | 31 | 29 | 96 | 29.81 | WSW | 0 | 0.01 |